{"data":{"norad_id":58368,"intl_designator":"2023-177T","name":"STARLINK-30889","alt_names":[],"object_type":"PAYLOAD","status":"ACTIVE","operator":null,"country":"US","launch_date":"2023-11-18","launch_site_code":"AFETR","launch_vehicle":null,"mission":null,"orbit_class":"UNKNOWN","rcs_meters":null,"size_class":null,"mass_kg":null,"dimensions":null,"purposes":["comms"],"wikipedia_slug":null,"has_3d_model":false,"image_url":null,"decayed_at":null,"tle_current":{"epoch":"2026-05-24T20:29:37.710816Z","epoch_age_seconds":98139,"freshness":"FRESH","line1":"1 58368U 23177T   26144.85390869  .00000800  00000+0  38617-4 0  9991","line2":"2 58368  42.9982 280.6496 0002640 245.7622 114.2954 15.27578092139871","mean_motion":15.27578092,"eccentricity":0.000264,"inclination_deg":42.9982,"raan_deg":280.6496,"arg_perigee_deg":245.7622,"mean_anomaly_deg":114.2954,"bstar":3.8617e-5,"rev_number":13987,"period_min":94.266866456213,"perigee_km":481.24345464635,"apogee_km":484.86616392165,"semimajor_km":6861.191809284,"source":"CELESTRAK","updated_at":"2026-05-25T13:38:18.610114Z"}}}